Year,Month,Day,Hour,Minute,Value (Times are PST for temperature in C)
2017,02,15,00,00,7.80
2017,02,15,00,01,7.90
2017,02,15,00,02,7.90
2017,02,15,00,03,7.90
2017,02,15,00,04,8.00
2017,02,15,00,05,8.00
2017,02,15,00,06,8.00
2017,02,15,00,07,8.10
2017,02,15,00,08,8.10
2017,02,15,00,09,8.20
2017,02,15,00,10,8.30
2017,02,15,00,11,8.40
2017,02,15,00,12,8.40
2017,02,15,00,13,8.50
2017,02,15,00,14,8.50
2017,02,15,00,15,8.60
2017,02,15,00,16,8.70
2017,02,15,00,17,8.70
2017,02,15,00,18,8.70
2017,02,15,00,19,8.80
2017,02,15,00,20,8.80
2017,02,15,00,21,8.80
2017,02,15,00,22,8.90
2017,02,15,00,23,8.90
2017,02,15,00,24,8.90
2017,02,15,00,25,9.00
2017,02,15,00,26,9.00
2017,02,15,00,27,9.00
2017,02,15,00,28,9.10
2017,02,15,00,29,9.10
2017,02,15,00,30,9.10
2017,02,15,00,31,9.10
2017,02,15,00,32,9.10
2017,02,15,00,33,9.20
2017,02,15,00,34,9.20
2017,02,15,00,35,9.20
2017,02,15,00,36,9.20
2017,02,15,00,37,9.20
2017,02,15,00,38,9.20
2017,02,15,00,39,9.20
2017,02,15,00,40,9.20
2017,02,15,00,41,9.20
2017,02,15,00,42,9.20
2017,02,15,00,43,9.20
2017,02,15,00,44,9.20
2017,02,15,00,45,9.20
2017,02,15,00,46,9.20
2017,02,15,00,47,9.20
2017,02,15,00,48,9.20
2017,02,15,00,49,9.20
2017,02,15,00,50,9.20
2017,02,15,00,51,9.20
2017,02,15,00,52,9.30
2017,02,15,00,53,9.30
2017,02,15,00,54,9.30
2017,02,15,00,55,9.30
2017,02,15,00,56,9.30
2017,02,15,00,57,9.30
2017,02,15,00,58,9.40
2017,02,15,00,59,9.40
2017,02,15,01,00,9.30
2017,02,15,01,01,9.40
2017,02,15,01,02,9.40
2017,02,15,01,03,9.40
2017,02,15,01,04,9.40
2017,02,15,01,05,9.40
2017,02,15,01,06,9.40
2017,02,15,01,07,9.40
2017,02,15,01,08,9.40
2017,02,15,01,09,9.40
2017,02,15,01,10,9.40
2017,02,15,01,11,9.40
2017,02,15,01,12,9.40
2017,02,15,01,13,9.40
2017,02,15,01,14,9.40
2017,02,15,01,15,9.40
2017,02,15,01,16,9.40
2017,02,15,01,17,9.40
2017,02,15,01,18,9.40
2017,02,15,01,19,9.40
2017,02,15,01,20,9.40
2017,02,15,01,21,9.40
2017,02,15,01,22,9.40
2017,02,15,01,23,9.40
2017,02,15,01,24,9.50
2017,02,15,01,25,9.50
2017,02,15,01,26,9.50
2017,02,15,01,27,9.50
2017,02,15,01,28,9.50
2017,02,15,01,29,9.50
2017,02,15,01,30,9.50
2017,02,15,01,31,9.40
2017,02,15,01,32,9.50
2017,02,15,01,33,9.40
2017,02,15,01,34,9.40
2017,02,15,01,35,9.40
2017,02,15,01,36,9.40
2017,02,15,01,37,9.40
2017,02,15,01,38,9.40
2017,02,15,01,39,9.50
2017,02,15,01,40,9.50
2017,02,15,01,41,9.50
2017,02,15,01,42,9.60
2017,02,15,01,43,9.60
2017,02,15,01,44,9.60
2017,02,15,01,45,9.60
2017,02,15,01,46,9.60
2017,02,15,01,47,9.60
2017,02,15,01,48,9.60
2017,02,15,01,49,9.60
2017,02,15,01,50,9.60
2017,02,15,01,51,9.60
2017,02,15,01,52,9.60
2017,02,15,01,53,9.60
2017,02,15,01,54,9.50
2017,02,15,01,55,9.50
2017,02,15,01,56,9.50
2017,02,15,01,57,9.50
2017,02,15,01,58,9.50
2017,02,15,01,59,9.50
2017,02,15,02,00,9.40
2017,02,15,02,01,9.40
2017,02,15,02,02,9.40
2017,02,15,02,03,9.40
2017,02,15,02,04,9.40
2017,02,15,02,05,9.40
2017,02,15,02,06,9.40
2017,02,15,02,07,9.40
2017,02,15,02,08,9.30
2017,02,15,02,09,9.30
2017,02,15,02,10,9.30
2017,02,15,02,11,9.30
2017,02,15,02,12,9.30
2017,02,15,02,13,9.30
2017,02,15,02,14,9.30
2017,02,15,02,15,9.30
2017,02,15,02,16,9.30
2017,02,15,02,17,9.30
2017,02,15,02,18,9.30
2017,02,15,02,19,9.30
2017,02,15,02,20,9.30
2017,02,15,02,21,9.30
2017,02,15,02,22,9.30
2017,02,15,02,23,9.30
2017,02,15,02,24,9.30
2017,02,15,02,25,9.20
2017,02,15,02,26,9.20
2017,02,15,02,27,9.20
2017,02,15,02,28,9.20
2017,02,15,02,29,9.20
2017,02,15,02,30,9.20
2017,02,15,02,31,9.20
2017,02,15,02,32,9.20
2017,02,15,02,33,9.20
2017,02,15,02,34,9.20
2017,02,15,02,35,9.20
2017,02,15,02,36,9.20
2017,02,15,02,37,9.10
2017,02,15,02,38,9.10
2017,02,15,02,39,9.10
2017,02,15,02,40,9.10
2017,02,15,02,41,9.10
2017,02,15,02,42,9.10
2017,02,15,02,43,9.10
2017,02,15,02,44,9.10
2017,02,15,02,45,9.10
2017,02,15,02,46,9.10
2017,02,15,02,47,9.10
2017,02,15,02,48,9.10
2017,02,15,02,49,9.10
2017,02,15,02,50,9.10
2017,02,15,02,51,9.10
2017,02,15,02,52,9.10
2017,02,15,02,53,9.10
2017,02,15,02,54,9.10
2017,02,15,02,55,9.00
2017,02,15,02,56,9.00
2017,02,15,02,57,9.00
2017,02,15,02,58,9.00
2017,02,15,02,59,9.00
2017,02,15,03,00,9.00
2017,02,15,03,01,8.90
2017,02,15,03,02,9.00
2017,02,15,03,03,8.90
2017,02,15,03,04,8.90
2017,02,15,03,05,8.90
2017,02,15,03,06,8.90
2017,02,15,03,07,8.90
2017,02,15,03,08,8.90
2017,02,15,03,09,8.90
2017,02,15,03,10,8.90
2017,02,15,03,11,8.90
2017,02,15,03,12,8.90
2017,02,15,03,13,8.90
2017,02,15,03,14,8.90
2017,02,15,03,15,8.90
2017,02,15,03,16,8.80
2017,02,15,03,17,8.80
2017,02,15,03,18,8.80
2017,02,15,03,19,8.80
2017,02,15,03,20,8.80
2017,02,15,03,21,8.80
2017,02,15,03,22,8.80
2017,02,15,03,23,8.80
2017,02,15,03,24,8.80
2017,02,15,03,25,8.80
2017,02,15,03,26,8.80
2017,02,15,03,27,8.80
2017,02,15,03,28,8.80
2017,02,15,03,29,8.70
2017,02,15,03,30,8.70
2017,02,15,03,31,8.70
2017,02,15,03,32,8.70
2017,02,15,03,33,8.70
2017,02,15,03,34,8.70
2017,02,15,03,35,8.70
2017,02,15,03,36,8.70
2017,02,15,03,37,8.70
2017,02,15,03,38,8.70
2017,02,15,03,39,8.70
2017,02,15,03,40,8.70
2017,02,15,03,41,8.60
2017,02,15,03,42,8.60
2017,02,15,03,43,8.60
2017,02,15,03,44,8.60
2017,02,15,03,45,8.60
2017,02,15,03,46,8.60
2017,02,15,03,47,8.60
2017,02,15,03,48,8.60
2017,02,15,03,49,8.60
2017,02,15,03,50,8.60
2017,02,15,03,51,8.60
2017,02,15,03,52,8.60
2017,02,15,03,53,8.60
2017,02,15,03,54,8.60
2017,02,15,03,55,8.60
2017,02,15,03,56,8.60
2017,02,15,03,57,8.60
2017,02,15,03,58,8.60
2017,02,15,03,59,8.60
2017,02,15,04,00,8.60
2017,02,15,04,01,8.60
2017,02,15,04,02,8.60
2017,02,15,04,03,8.60
2017,02,15,04,04,8.60
2017,02,15,04,05,8.60
2017,02,15,04,06,8.60
2017,02,15,04,07,8.50
2017,02,15,04,08,8.50
2017,02,15,04,09,8.60
2017,02,15,04,10,8.60
2017,02,15,04,11,8.60
2017,02,15,04,12,8.60
2017,02,15,04,13,8.60
2017,02,15,04,14,8.60
2017,02,15,04,15,8.60
2017,02,15,04,16,8.60
2017,02,15,04,17,8.60
2017,02,15,04,18,8.60
2017,02,15,04,19,8.60
2017,02,15,04,20,8.60
2017,02,15,04,21,8.60
2017,02,15,04,22,8.60
2017,02,15,04,23,8.60
2017,02,15,04,24,8.60
2017,02,15,04,25,8.60
2017,02,15,04,26,8.60
2017,02,15,04,27,8.60
2017,02,15,04,28,8.60
2017,02,15,04,29,8.60
2017,02,15,04,30,8.60
2017,02,15,04,31,8.60
2017,02,15,04,32,8.60
2017,02,15,04,33,8.60
2017,02,15,04,34,8.60
2017,02,15,04,35,8.60
2017,02,15,04,36,8.60
2017,02,15,04,37,8.60
2017,02,15,04,38,8.60
2017,02,15,04,39,8.60
2017,02,15,04,40,8.70
2017,02,15,04,41,8.70
2017,02,15,04,42,8.70
2017,02,15,04,43,8.70
2017,02,15,04,44,8.70
2017,02,15,04,45,8.70
2017,02,15,04,46,8.70
2017,02,15,04,47,8.70
2017,02,15,04,48,8.70
2017,02,15,04,49,8.70
2017,02,15,04,50,8.70
2017,02,15,04,51,8.70
2017,02,15,04,52,8.70
2017,02,15,04,53,8.70
2017,02,15,04,54,8.70
2017,02,15,04,55,8.70
2017,02,15,04,56,8.70
2017,02,15,04,57,8.70
2017,02,15,04,58,8.70
2017,02,15,04,59,8.70
2017,02,15,05,00,8.70
2017,02,15,05,01,8.70
2017,02,15,05,02,8.70
2017,02,15,05,03,8.70
2017,02,15,05,04,8.70
2017,02,15,05,05,8.70
2017,02,15,05,06,8.70
2017,02,15,05,07,8.60
2017,02,15,05,08,8.60
2017,02,15,05,09,8.60
2017,02,15,05,10,8.60
2017,02,15,05,11,8.60
2017,02,15,05,12,8.60
2017,02,15,05,13,8.60
2017,02,15,05,14,8.70
2017,02,15,05,15,8.70
2017,02,15,05,16,8.70
2017,02,15,05,17,8.70
2017,02,15,05,18,8.70
2017,02,15,05,19,8.60
2017,02,15,05,20,8.60
2017,02,15,05,21,8.60
2017,02,15,05,22,8.70
2017,02,15,05,23,8.60
2017,02,15,05,24,8.60
2017,02,15,05,25,8.60
2017,02,15,05,26,8.60
2017,02,15,05,27,8.60
2017,02,15,05,28,8.60
2017,02,15,05,29,8.60
2017,02,15,05,30,8.60
2017,02,15,05,31,8.60
2017,02,15,05,32,8.60
2017,02,15,05,33,8.60
2017,02,15,05,34,8.60
2017,02,15,05,35,8.50
2017,02,15,05,36,8.50
2017,02,15,05,37,8.50
2017,02,15,05,38,8.50
2017,02,15,05,39,8.50
2017,02,15,05,40,8.50
2017,02,15,05,41,8.50
2017,02,15,05,42,8.50
2017,02,15,05,43,8.50
2017,02,15,05,44,8.50
2017,02,15,05,45,8.50
2017,02,15,05,46,8.50
2017,02,15,05,47,8.50
2017,02,15,05,48,8.50
2017,02,15,05,49,8.50
2017,02,15,05,50,8.50
2017,02,15,05,51,8.50
2017,02,15,05,52,8.50
2017,02,15,05,53,8.50
2017,02,15,05,54,8.50
2017,02,15,05,55,8.50
2017,02,15,05,56,8.50
2017,02,15,05,57,8.50
2017,02,15,05,58,8.50
2017,02,15,05,59,8.50
2017,02,15,06,00,8.50
2017,02,15,06,01,8.40
2017,02,15,06,02,8.40
2017,02,15,06,03,8.40
2017,02,15,06,04,8.40
2017,02,15,06,05,8.40
2017,02,15,06,06,8.40
2017,02,15,06,07,8.40
2017,02,15,06,08,8.40
2017,02,15,06,09,8.40
2017,02,15,06,10,8.40
2017,02,15,06,11,8.40
2017,02,15,06,12,8.40
2017,02,15,06,13,8.40
2017,02,15,06,14,8.40
2017,02,15,06,15,8.40
2017,02,15,06,16,8.40
2017,02,15,06,17,8.40
2017,02,15,06,18,8.40
2017,02,15,06,19,8.40
2017,02,15,06,20,8.40
2017,02,15,06,21,8.40
2017,02,15,06,22,8.40
2017,02,15,06,23,8.40
2017,02,15,06,24,8.50
2017,02,15,06,25,8.40
2017,02,15,06,26,8.50
2017,02,15,06,27,8.40
2017,02,15,06,28,8.40
2017,02,15,06,29,8.40
2017,02,15,06,30,8.40
2017,02,15,06,31,8.40
2017,02,15,06,32,8.40
2017,02,15,06,33,8.40
2017,02,15,06,34,8.40
2017,02,15,06,35,8.40
2017,02,15,06,36,8.40
2017,02,15,06,37,8.40
2017,02,15,06,38,8.40
2017,02,15,06,39,8.40
2017,02,15,06,40,8.40
2017,02,15,06,41,8.40
2017,02,15,06,42,8.30
2017,02,15,06,43,8.30
2017,02,15,06,44,8.30
2017,02,15,06,45,8.30
2017,02,15,06,46,8.30
2017,02,15,06,47,8.30
2017,02,15,06,48,8.30
2017,02,15,06,49,8.30
2017,02,15,06,50,8.30
2017,02,15,06,51,8.30
2017,02,15,06,52,8.30
2017,02,15,06,53,8.30
2017,02,15,06,54,8.30
2017,02,15,06,55,8.30
2017,02,15,06,56,8.30
2017,02,15,06,57,8.30
2017,02,15,06,58,8.30
2017,02,15,06,59,8.30
2017,02,15,07,00,8.30
2017,02,15,07,01,8.30
2017,02,15,07,02,8.30
2017,02,15,07,03,8.30
2017,02,15,07,04,8.30
2017,02,15,07,05,8.30
2017,02,15,07,06,8.30
2017,02,15,07,07,8.30
2017,02,15,07,08,8.40
2017,02,15,07,09,8.40
2017,02,15,07,10,8.40
2017,02,15,07,11,8.40
2017,02,15,07,12,8.40
2017,02,15,07,13,8.40
2017,02,15,07,14,8.40
2017,02,15,07,15,8.40
2017,02,15,07,16,8.30
2017,02,15,07,17,8.30
2017,02,15,07,18,8.30
2017,02,15,07,19,8.30
2017,02,15,07,20,8.30
2017,02,15,07,21,8.30
2017,02,15,07,22,8.30
2017,02,15,07,23,8.30
2017,02,15,07,24,8.30
2017,02,15,07,25,8.30
2017,02,15,07,26,8.30
2017,02,15,07,27,8.30
2017,02,15,07,28,8.30
2017,02,15,07,29,8.30
2017,02,15,07,30,8.30
2017,02,15,07,31,8.30
2017,02,15,07,32,8.20
2017,02,15,07,33,8.20
2017,02,15,07,34,8.20
2017,02,15,07,35,8.20
2017,02,15,07,36,8.20
2017,02,15,07,37,8.20
2017,02,15,07,38,8.10
2017,02,15,07,39,8.10
2017,02,15,07,40,8.10
2017,02,15,07,41,8.10
2017,02,15,07,42,8.10
2017,02,15,07,43,8.10
2017,02,15,07,44,8.10
2017,02,15,07,45,8.10
2017,02,15,07,46,8.10
2017,02,15,07,47,8.10
2017,02,15,07,48,8.10
2017,02,15,07,49,8.10
2017,02,15,07,50,8.10
2017,02,15,07,51,8.10
2017,02,15,07,52,8.10
2017,02,15,07,53,8.10
2017,02,15,07,54,8.10
2017,02,15,07,55,8.10
2017,02,15,07,56,8.10
2017,02,15,07,57,8.20
2017,02,15,07,58,8.20
2017,02,15,07,59,8.20
2017,02,15,08,00,8.30
2017,02,15,08,01,8.30
2017,02,15,08,02,8.30
2017,02,15,08,03,8.30
2017,02,15,08,04,8.30
2017,02,15,08,05,8.30
2017,02,15,08,06,8.30
2017,02,15,08,07,8.30
2017,02,15,08,08,8.30
2017,02,15,08,09,8.30
2017,02,15,08,10,8.30
2017,02,15,08,11,8.30
2017,02,15,08,12,8.30
2017,02,15,08,13,8.30
2017,02,15,08,14,8.30
2017,02,15,08,15,8.40
2017,02,15,08,16,8.40
2017,02,15,08,17,8.40
2017,02,15,08,18,8.40
2017,02,15,08,19,8.40
2017,02,15,08,20,8.40
2017,02,15,08,21,8.40
2017,02,15,08,22,8.40
2017,02,15,08,23,8.40
2017,02,15,08,24,8.50
2017,02,15,08,25,8.50
2017,02,15,08,26,8.50
2017,02,15,08,27,8.50
2017,02,15,08,28,8.50
2017,02,15,08,29,8.60
2017,02,15,08,30,8.60
2017,02,15,08,31,8.60
2017,02,15,08,32,8.60
2017,02,15,08,33,8.60
2017,02,15,08,34,8.60
2017,02,15,08,35,8.60
2017,02,15,08,36,8.60
2017,02,15,08,37,8.70
2017,02,15,08,38,8.70
2017,02,15,08,39,8.70
2017,02,15,08,40,8.70
2017,02,15,08,41,8.70
2017,02,15,08,42,8.70
2017,02,15,08,43,8.70
2017,02,15,08,44,8.80
2017,02,15,08,45,8.80
2017,02,15,08,46,8.80
2017,02,15,08,47,8.80
2017,02,15,08,48,8.80
2017,02,15,08,49,8.80
2017,02,15,08,50,8.80
2017,02,15,08,51,8.80
2017,02,15,08,52,8.80
2017,02,15,08,53,8.80
2017,02,15,08,54,8.80
2017,02,15,08,55,8.90
2017,02,15,08,56,8.90
2017,02,15,08,57,8.90
2017,02,15,08,58,8.90
2017,02,15,08,59,8.90
2017,02,15,09,00,8.90
2017,02,15,09,01,8.90
2017,02,15,09,02,8.90
2017,02,15,09,03,8.90
2017,02,15,09,04,8.90
2017,02,15,09,05,8.90
2017,02,15,09,06,8.90
2017,02,15,09,07,8.90
2017,02,15,09,08,8.90
2017,02,15,09,09,9.00
2017,02,15,09,10,9.00
2017,02,15,09,11,9.00
2017,02,15,09,12,9.00
2017,02,15,09,13,9.00
2017,02,15,09,14,9.00
2017,02,15,09,15,9.00
2017,02,15,09,16,9.00
2017,02,15,09,17,9.00
2017,02,15,09,18,9.00
2017,02,15,09,19,9.00
2017,02,15,09,20,9.00
2017,02,15,09,21,9.00
2017,02,15,09,22,9.10
2017,02,15,09,23,9.00
2017,02,15,09,24,9.00
2017,02,15,09,25,9.00
2017,02,15,09,26,9.00
2017,02,15,09,27,9.00
2017,02,15,09,28,9.00
2017,02,15,09,29,9.10
2017,02,15,09,30,9.10
2017,02,15,09,31,9.10
2017,02,15,09,32,9.10
2017,02,15,09,33,9.10
2017,02,15,09,34,9.10
2017,02,15,09,35,9.10
2017,02,15,09,36,9.10
2017,02,15,09,37,9.10
2017,02,15,09,38,9.10
2017,02,15,09,39,9.20
2017,02,15,09,40,9.20
2017,02,15,09,41,9.20
2017,02,15,09,42,9.20
2017,02,15,09,43,9.20
2017,02,15,09,44,9.20
2017,02,15,09,45,9.20
2017,02,15,09,46,9.20
2017,02,15,09,47,9.20
2017,02,15,09,48,9.20
2017,02,15,09,49,9.20
2017,02,15,09,50,9.20
2017,02,15,09,51,9.20
2017,02,15,09,52,9.20
2017,02,15,09,53,9.20
2017,02,15,09,54,9.20
2017,02,15,09,55,9.20
2017,02,15,09,56,9.20
2017,02,15,09,57,9.20
2017,02,15,09,58,9.20
2017,02,15,09,59,9.20
2017,02,15,10,00,9.20
2017,02,15,10,01,9.20
2017,02,15,10,02,9.20
2017,02,15,10,03,9.20
2017,02,15,10,04,9.30
2017,02,15,10,05,9.30
2017,02,15,10,06,9.30
2017,02,15,10,07,9.30
2017,02,15,10,08,9.30
2017,02,15,10,09,9.30
2017,02,15,10,10,9.30
2017,02,15,10,11,9.40
2017,02,15,10,12,9.40
2017,02,15,10,13,9.40
2017,02,15,10,14,9.40
2017,02,15,10,15,9.40
2017,02,15,10,16,9.50
2017,02,15,10,17,9.50
2017,02,15,10,18,9.50
2017,02,15,10,19,9.60
2017,02,15,10,20,9.60
2017,02,15,10,21,9.60
2017,02,15,10,22,9.60
2017,02,15,10,23,9.70
2017,02,15,10,24,9.70
2017,02,15,10,25,9.70
2017,02,15,10,26,9.70
2017,02,15,10,27,9.70
2017,02,15,10,28,9.70
2017,02,15,10,29,9.70
2017,02,15,10,30,9.70
2017,02,15,10,31,9.70
2017,02,15,10,32,9.80
2017,02,15,10,33,9.80
2017,02,15,10,34,9.80
2017,02,15,10,35,9.80
2017,02,15,10,36,9.80
2017,02,15,10,37,9.80
2017,02,15,10,38,9.80
2017,02,15,10,39,9.80
2017,02,15,10,40,9.80
2017,02,15,10,41,9.90
2017,02,15,10,42,9.90
2017,02,15,10,43,9.90
2017,02,15,10,44,9.90
2017,02,15,10,45,9.90
2017,02,15,10,46,9.90
2017,02,15,10,47,10.00
2017,02,15,10,48,10.00
2017,02,15,10,49,10.00
2017,02,15,10,50,10.00
2017,02,15,10,51,10.00
2017,02,15,10,52,10.10
2017,02,15,10,53,10.10
2017,02,15,10,54,10.10
2017,02,15,10,55,10.10
2017,02,15,10,56,10.10
2017,02,15,10,57,10.10
2017,02,15,10,58,10.10
2017,02,15,10,59,10.10
2017,02,15,11,00,10.10
2017,02,15,11,01,10.10
2017,02,15,11,02,10.10
2017,02,15,11,03,10.10
2017,02,15,11,04,10.20
2017,02,15,11,05,10.20
2017,02,15,11,06,10.20
2017,02,15,11,07,10.20
2017,02,15,11,08,10.20
2017,02,15,11,09,10.30
2017,02,15,11,10,10.30
2017,02,15,11,11,10.30
2017,02,15,11,12,10.30
2017,02,15,11,13,10.30
2017,02,15,11,14,10.30
2017,02,15,11,15,10.30
2017,02,15,11,16,10.40
2017,02,15,11,17,10.40
2017,02,15,11,18,10.40
2017,02,15,11,19,10.40
2017,02,15,11,20,10.40
2017,02,15,11,21,10.40
2017,02,15,11,22,10.40
2017,02,15,11,23,10.40
2017,02,15,11,24,10.40
2017,02,15,11,25,10.40
2017,02,15,11,26,10.40
2017,02,15,11,27,10.40
2017,02,15,11,28,10.30
2017,02,15,11,29,10.30
2017,02,15,11,30,10.30
2017,02,15,11,31,10.30
2017,02,15,11,32,10.20
2017,02,15,11,33,10.20
2017,02,15,11,34,10.20
2017,02,15,11,35,10.20
2017,02,15,11,36,10.20
2017,02,15,11,37,10.10
2017,02,15,11,38,10.10
2017,02,15,11,39,10.10
2017,02,15,11,40,10.10
2017,02,15,11,41,10.10
2017,02,15,11,42,10.10
2017,02,15,11,43,10.00
2017,02,15,11,44,10.00
2017,02,15,11,45,10.00
2017,02,15,11,46,10.00
2017,02,15,11,47,10.00
2017,02,15,11,48,10.00
2017,02,15,11,49,10.00
2017,02,15,11,50,10.00
2017,02,15,11,51,10.00
2017,02,15,11,52,10.00
2017,02,15,11,53,10.00
2017,02,15,11,54,10.10
2017,02,15,11,55,10.10
2017,02,15,11,56,10.10
2017,02,15,11,57,10.10
2017,02,15,11,58,10.10
2017,02,15,11,59,10.10
2017,02,15,12,00,10.10
2017,02,15,12,01,10.10
2017,02,15,12,02,10.10
2017,02,15,12,03,10.10
2017,02,15,12,04,10.10
2017,02,15,12,05,10.10
2017,02,15,12,06,10.10
2017,02,15,12,07,10.00
2017,02,15,12,08,10.00
2017,02,15,12,09,10.00
2017,02,15,12,10,9.90
2017,02,15,12,11,9.90
2017,02,15,12,12,9.90
2017,02,15,12,13,9.90
2017,02,15,12,14,9.90
2017,02,15,12,15,9.80
2017,02,15,12,16,9.80
2017,02,15,12,17,9.80
2017,02,15,12,18,9.80
2017,02,15,12,19,9.80
2017,02,15,12,20,9.80
2017,02,15,12,21,9.80
2017,02,15,12,22,9.80
2017,02,15,12,23,9.80
2017,02,15,12,24,9.80
2017,02,15,12,25,9.80
2017,02,15,12,26,9.80
2017,02,15,12,27,9.80
2017,02,15,12,28,9.80
2017,02,15,12,29,9.80
2017,02,15,12,30,9.80
2017,02,15,12,31,9.80
2017,02,15,12,32,9.80
2017,02,15,12,33,9.80
2017,02,15,12,34,9.80
2017,02,15,12,35,9.80
2017,02,15,12,36,9.80
2017,02,15,12,37,9.80
2017,02,15,12,38,9.80
2017,02,15,12,39,9.80
2017,02,15,12,40,9.80
2017,02,15,12,41,9.80
2017,02,15,12,42,9.80
2017,02,15,12,43,9.80
2017,02,15,12,44,9.80
2017,02,15,12,45,9.80
2017,02,15,12,46,9.80
2017,02,15,12,47,9.80
2017,02,15,12,48,9.80
2017,02,15,12,49,9.80
2017,02,15,12,50,9.80
2017,02,15,12,51,9.80
2017,02,15,12,52,9.80
2017,02,15,12,53,9.80
2017,02,15,12,54,9.80
2017,02,15,12,55,9.80
2017,02,15,12,56,9.80
2017,02,15,12,57,9.80
2017,02,15,12,58,9.80
2017,02,15,12,59,9.80
2017,02,15,13,00,9.80
2017,02,15,13,01,9.80
2017,02,15,13,02,9.80
2017,02,15,13,03,9.80
2017,02,15,13,04,9.80
2017,02,15,13,05,9.80
2017,02,15,13,06,9.70
2017,02,15,13,07,9.70
2017,02,15,13,08,9.70
2017,02,15,13,09,9.70
2017,02,15,13,10,9.70
2017,02,15,13,11,9.70
2017,02,15,13,12,9.70
2017,02,15,13,13,9.70
2017,02,15,13,14,9.70
2017,02,15,13,15,9.70
2017,02,15,13,16,9.70
2017,02,15,13,17,9.70
2017,02,15,13,18,9.70
2017,02,15,13,19,9.60
2017,02,15,13,20,9.60
2017,02,15,13,21,9.60
2017,02,15,13,22,9.60
2017,02,15,13,23,9.60
2017,02,15,13,24,9.60
2017,02,15,13,25,9.60
2017,02,15,13,26,9.60
2017,02,15,13,27,9.60
2017,02,15,13,28,9.60
2017,02,15,13,29,9.60
2017,02,15,13,30,9.70
2017,02,15,13,31,9.70
2017,02,15,13,32,9.70
2017,02,15,13,33,9.70
2017,02,15,13,34,9.70
2017,02,15,13,35,9.70
2017,02,15,13,36,9.70
2017,02,15,13,37,9.70
2017,02,15,13,38,9.70
2017,02,15,13,39,9.70
2017,02,15,13,40,9.70
2017,02,15,13,41,9.70
2017,02,15,13,42,9.70
2017,02,15,13,43,9.70
2017,02,15,13,44,9.70
2017,02,15,13,45,9.70
2017,02,15,13,46,9.70
2017,02,15,13,47,9.70
2017,02,15,13,48,9.70
2017,02,15,13,49,9.70
2017,02,15,13,50,9.70
2017,02,15,13,51,9.70
2017,02,15,13,52,9.70
2017,02,15,13,53,9.70
2017,02,15,13,54,9.70
2017,02,15,13,55,9.70
2017,02,15,13,56,9.70
2017,02,15,13,57,9.70
2017,02,15,13,58,9.80
2017,02,15,13,59,9.80
2017,02,15,14,00,9.80
2017,02,15,14,01,9.80
2017,02,15,14,02,9.80
2017,02,15,14,03,9.80
2017,02,15,14,04,9.80
2017,02,15,14,05,9.80
2017,02,15,14,06,9.80
2017,02,15,14,07,9.80
2017,02,15,14,08,9.80
2017,02,15,14,09,9.80
2017,02,15,14,10,9.80
2017,02,15,14,11,9.80
2017,02,15,14,12,9.80
2017,02,15,14,13,9.80
2017,02,15,14,14,9.80
2017,02,15,14,15,9.90
2017,02,15,14,16,9.90
2017,02,15,14,17,9.90
2017,02,15,14,18,9.90
2017,02,15,14,19,9.90
2017,02,15,14,20,9.90
2017,02,15,14,21,9.90
2017,02,15,14,22,10.00
2017,02,15,14,23,10.00
2017,02,15,14,24,10.10
2017,02,15,14,25,10.10
2017,02,15,14,26,10.10
2017,02,15,14,27,10.10
2017,02,15,14,28,10.20
2017,02,15,14,29,10.20
2017,02,15,14,30,10.20
2017,02,15,14,31,10.20
2017,02,15,14,32,10.20
2017,02,15,14,33,10.20
2017,02,15,14,34,10.20
2017,02,15,14,35,10.30
2017,02,15,14,36,10.30
2017,02,15,14,37,10.30
2017,02,15,14,38,10.30
2017,02,15,14,39,10.30
2017,02,15,14,40,10.30
2017,02,15,14,41,10.30
2017,02,15,14,42,10.30
2017,02,15,14,43,10.30
2017,02,15,14,44,10.30
2017,02,15,14,45,10.30
2017,02,15,14,46,10.30
2017,02,15,14,47,10.30
2017,02,15,14,48,10.30
2017,02,15,14,49,10.30
2017,02,15,14,50,10.30
2017,02,15,14,51,10.30
2017,02,15,14,52,10.30
2017,02,15,14,53,10.30
2017,02,15,14,54,10.30
2017,02,15,14,55,10.30
2017,02,15,14,56,10.30
2017,02,15,14,57,10.30
2017,02,15,14,58,10.20
2017,02,15,14,59,10.20
2017,02,15,15,00,10.20
2017,02,15,15,01,10.20
2017,02,15,15,02,10.20
2017,02,15,15,03,10.20
2017,02,15,15,04,10.20
2017,02,15,15,05,10.20
2017,02,15,15,06,10.20
2017,02,15,15,07,10.20
2017,02,15,15,08,10.20
2017,02,15,15,09,10.20
2017,02,15,15,10,10.20
2017,02,15,15,11,10.20
2017,02,15,15,12,10.20
2017,02,15,15,13,10.20
2017,02,15,15,14,10.20
2017,02,15,15,15,10.20
2017,02,15,15,16,10.20
2017,02,15,15,17,10.20
2017,02,15,15,18,10.20
2017,02,15,15,19,10.20
2017,02,15,15,20,10.20
2017,02,15,15,21,10.20
2017,02,15,15,22,10.20
2017,02,15,15,23,10.20
2017,02,15,15,24,10.20
2017,02,15,15,25,10.20
2017,02,15,15,26,10.20
2017,02,15,15,27,10.20
2017,02,15,15,28,10.20
2017,02,15,15,29,10.20
2017,02,15,15,30,10.20
2017,02,15,15,31,10.20
2017,02,15,15,32,10.20
2017,02,15,15,33,10.20
2017,02,15,15,34,10.20
2017,02,15,15,35,10.20
2017,02,15,15,36,10.20
2017,02,15,15,37,10.20
2017,02,15,15,38,10.20
2017,02,15,15,39,10.20
2017,02,15,15,40,10.20
2017,02,15,15,41,10.20
2017,02,15,15,42,10.20
2017,02,15,15,43,10.20
2017,02,15,15,44,10.20
2017,02,15,15,45,10.20
2017,02,15,15,46,10.20
2017,02,15,15,47,10.20
2017,02,15,15,48,10.20
2017,02,15,15,49,10.20
2017,02,15,15,50,10.20
2017,02,15,15,51,10.20
2017,02,15,15,52,10.20
2017,02,15,15,53,10.20
2017,02,15,15,54,10.20
2017,02,15,15,55,10.20
2017,02,15,15,56,10.20
2017,02,15,15,57,10.20
2017,02,15,15,58,10.20
2017,02,15,15,59,10.20
2017,02,15,16,00,10.20
2017,02,15,16,01,10.20
2017,02,15,16,02,10.20
2017,02,15,16,03,10.20
2017,02,15,16,04,10.20
2017,02,15,16,05,10.20
2017,02,15,16,06,10.20
2017,02,15,16,07,10.20
2017,02,15,16,08,10.20
2017,02,15,16,09,10.10
2017,02,15,16,10,10.10
2017,02,15,16,11,10.10
2017,02,15,16,12,10.10
2017,02,15,16,13,10.10
2017,02,15,16,14,10.10
2017,02,15,16,15,10.10
2017,02,15,16,16,10.10
2017,02,15,16,17,10.10
2017,02,15,16,18,10.10
2017,02,15,16,19,10.10
2017,02,15,16,20,10.10
2017,02,15,16,21,10.20
2017,02,15,16,22,10.20
2017,02,15,16,23,10.20
2017,02,15,16,24,10.20
2017,02,15,16,25,10.20
2017,02,15,16,26,10.30
2017,02,15,16,27,10.30
2017,02,15,16,28,10.30
2017,02,15,16,29,10.30
2017,02,15,16,30,10.40
2017,02,15,16,31,10.40
2017,02,15,16,32,10.50
2017,02,15,16,33,10.60
2017,02,15,16,34,10.70
2017,02,15,16,35,10.70
2017,02,15,16,36,10.80
2017,02,15,16,37,10.80
2017,02,15,16,38,10.80
2017,02,15,16,39,10.90
2017,02,15,16,40,10.90
2017,02,15,16,41,10.90
2017,02,15,16,42,11.00
2017,02,15,16,43,11.00
2017,02,15,16,44,11.00
2017,02,15,16,45,11.00
2017,02,15,16,46,11.00
2017,02,15,16,47,11.00
2017,02,15,16,48,11.00
2017,02,15,16,49,11.00
2017,02,15,16,50,11.00
2017,02,15,16,51,11.00
2017,02,15,16,52,11.10
2017,02,15,16,53,11.10
2017,02,15,16,54,11.10
2017,02,15,16,55,11.10
2017,02,15,16,56,11.10
2017,02,15,16,57,11.10
2017,02,15,16,58,11.10
2017,02,15,16,59,11.20
2017,02,15,17,00,11.20
2017,02,15,17,01,11.20
2017,02,15,17,02,11.20
2017,02,15,17,03,11.20
2017,02,15,17,04,11.20
2017,02,15,17,05,11.20
2017,02,15,17,06,11.20
2017,02,15,17,07,11.20
2017,02,15,17,08,11.20
2017,02,15,17,09,11.20
2017,02,15,17,10,11.20
2017,02,15,17,11,11.20
2017,02,15,17,12,11.20
2017,02,15,17,13,11.20
2017,02,15,17,14,11.10
2017,02,15,17,15,11.10
2017,02,15,17,16,11.10
2017,02,15,17,17,11.10
2017,02,15,17,18,11.10
2017,02,15,17,19,11.10
2017,02,15,17,20,11.10
2017,02,15,17,21,11.10
2017,02,15,17,22,11.10
2017,02,15,17,23,11.10
2017,02,15,17,24,11.00
2017,02,15,17,25,11.00
2017,02,15,17,26,11.00
2017,02,15,17,27,11.00
2017,02,15,17,28,11.00
2017,02,15,17,29,11.00
2017,02,15,17,30,11.10
2017,02,15,17,31,11.10
2017,02,15,17,32,11.00
2017,02,15,17,33,11.00
2017,02,15,17,34,11.00
2017,02,15,17,35,11.00
2017,02,15,17,36,11.00
2017,02,15,17,37,11.00
2017,02,15,17,38,11.00
2017,02,15,17,39,11.00
2017,02,15,17,40,11.00
2017,02,15,17,41,10.90
2017,02,15,17,42,11.00
2017,02,15,17,43,10.90
2017,02,15,17,44,10.90
2017,02,15,17,45,10.90
2017,02,15,17,46,10.90
2017,02,15,17,47,10.90
2017,02,15,17,48,10.90
2017,02,15,17,49,10.90
2017,02,15,17,50,10.90
2017,02,15,17,51,10.90
2017,02,15,17,52,10.90
2017,02,15,17,53,10.90